{"data":{"norad_id":62426,"epoch":"2026-09-21T18:07:46.951392Z","epoch_age_seconds":66064,"freshness":"FRESH","line1":"1 62426U 24249T   26264.75540453  .00015181  00000+0  55975-3 0  9993","line2":"2 62426  43.0005 287.2904 0002203 280.7193  79.3410 15.27597804 97797","mean_motion":15.27597804,"eccentricity":0.0002203,"inclination_deg":43.0005,"raan_deg":287.2904,"arg_perigee_deg":280.7193,"mean_anomaly_deg":79.341,"bstar":0.00055975,"rev_number":9779,"period_min":94.2656500441,"perigee_km":481.48427742395,"apogee_km":484.50729252901,"semimajor_km":6861.1327849765,"source":"CELESTRAK","updated_at":"2026-09-22T09:00:49.578829Z"}}